Munster, IL

10:52 PM CST on February 08, 2016 (GMT -0600)
Lansing Municipal

Weather History for KIGQ - May, 2013

Change the Weather History Date:

Monday, May 13, 2013

  Actual Average (KMDW) Record (KMDW)
Temperature  
Mean Temperature 46 °F 60 °F  
Max Temperature 62 °F 69 °F 90 °F (1982)
Min Temperature 31 °F 51 °F 30 °F (1938)
Degree Days  
Heating Degree Days 18 7  
Month to date heating degree days 105  
Since 1 July heating degree days 5876  
Cooling Degree Days 0 2  
Month to date cooling degree days 15  
Year to date cooling degree days 28  
Moisture  
Dew Point 31 °F    
Average Humidity 52    
Maximum Humidity 90    
Minimum Humidity 24    
Precipitation  
Precipitation 0.00 in 0.14 in 1.46 in (1983)
Month to date precipitation 1.63  
Year to date precipitation 11.99  
Sea Level Pressure  
Sea Level Pressure 30.11 in    
Wind  
Wind Speed 2 mph (NE)    
Max Wind Speed 14 mph    
Max Gust Speed 22 mph    
Visibility 10 miles    
Events      
T = Trace of Precipitation, MM = Missing Value Source: NWS Daily Summary

Daily Weather History Graph

Daily Weather History Graph

Search for Another Location

Airport or City:

Trip Planner

Search our weather history database for the weather conditions in past years. The results will help you decide how hot, cold, wet, or windy it might be!

Date:

Astronomy

May. 13, 2013 Rise Set
Actual Time 5:32 AM CDT 8:00 PM CDT
Civil Twilight 5:01 AM CDT 8:32 PM CDT
Nautical Twilight 4:22 AM CDT 9:11 PM CDT
Astronomical Twilight 3:38 AM CDT 9:55 PM CDT
Moon 8:18 AM CDT (5/13) 11:09 PM CDT (5/13)
Length of Visible Light 15h 31m
Length of Day
14h 28m
Waxing Crescent, 12% of the Moon is Illuminated
May 13
Waxing Crescent
May 17
First Quarter
May 24
Full
May 31
Last Quarter
Jun 8
New

Hourly Weather History & Observations

Time (CDT) Temp. Windchill Dew Point Humidity Pressure Visibility Wind Dir Wind Speed Gust Speed Precip Events Conditions
12:15 AM 35.6 °F - 32.0 °F 87% 30.11 in 10.0 mi Calm Calm - N/A   Clear
12:35 AM 37.0 °F - 32.0 °F 82% 30.11 in 10.0 mi Calm Calm - N/A   Mostly Cloudy
12:55 AM 38.5 °F - 31.3 °F 75% 30.11 in 10.0 mi Calm Calm - N/A   Overcast
1:15 AM 39.4 °F - 30.9 °F 72% 30.11 in 10.0 mi Calm Calm - N/A   Overcast
1:35 AM 40.1 °F 38.0 °F 30.0 °F 67% 30.11 in 10.0 mi SW 3.5 mph - N/A   Mostly Cloudy
1:55 AM 39.0 °F 36.8 °F 29.7 °F 69% 30.11 in 10.0 mi SW 3.5 mph - N/A   Clear
2:15 AM 38.5 °F - 29.8 °F 71% 30.11 in 10.0 mi Calm Calm - N/A   Clear
2:35 AM 38.7 °F - 29.7 °F 70% 30.11 in 10.0 mi Calm Calm - N/A   Clear
2:55 AM 38.3 °F - 29.3 °F 70% 30.11 in 10.0 mi Calm Calm - N/A   Clear
3:15 AM 37.2 °F - 30.0 °F 75% 30.12 in 10.0 mi Calm Calm - N/A   Clear
3:35 AM 36.9 °F - 30.0 °F 76% 30.12 in 10.0 mi Calm Calm - N/A   Clear
3:55 AM 35.2 °F - 29.5 °F 80% 30.12 in 10.0 mi Calm Calm - N/A   Clear
4:15 AM 36.3 °F - 30.0 °F 78% 30.12 in 10.0 mi Calm Calm - N/A   Clear
4:35 AM 34.0 °F - 29.7 °F 84% 30.12 in 10.0 mi Calm Calm - N/A   Clear
4:55 AM 34.5 °F - 30.0 °F 84% 30.12 in 10.0 mi Calm Calm - N/A   Clear
5:15 AM 33.4 °F - 29.3 °F 85% 30.12 in 10.0 mi Calm Calm - N/A   Clear
5:35 AM 32.0 °F - 29.1 °F 89% 30.12 in 10.0 mi Calm Calm - N/A   Clear
5:55 AM 32.0 °F - 29.3 °F 90% 30.13 in 10.0 mi Calm Calm - N/A   Clear
6:15 AM 31.3 °F - 28.6 °F 90% 30.13 in 10.0 mi Calm Calm - N/A   Clear
6:35 AM 33.6 °F - 30.7 °F 89% 30.14 in 10.0 mi Calm Calm - N/A   Clear
6:55 AM 36.5 °F - 32.9 °F 87% 30.15 in 10.0 mi Calm Calm - N/A   Clear
7:15 AM 39.7 °F - 32.7 °F 76% 30.16 in 10.0 mi Calm Calm - N/A   Clear
7:35 AM 41.9 °F - 33.1 °F 71% 30.17 in 10.0 mi Calm Calm - N/A   Clear
7:55 AM 44.4 °F - 32.9 °F 64% 30.17 in 10.0 mi Calm Calm - N/A   Clear
8:15 AM 46.0 °F - 32.2 °F 58% 30.17 in 10.0 mi Calm Calm - N/A   Clear
8:35 AM 47.7 °F - 32.4 °F 55% 30.18 in 10.0 mi Calm Calm - N/A   Clear
8:55 AM 48.7 °F - 32.2 °F 53% 30.18 in 10.0 mi Calm Calm - N/A   Clear
9:15 AM 50.7 °F - 31.1 °F 47% 30.18 in 10.0 mi Calm Calm - N/A   Clear
9:35 AM 52.0 °F - 31.1 °F 45% 30.18 in 10.0 mi WSW 4.6 mph - N/A   Clear
9:55 AM 54.0 °F - 30.7 °F 41% 30.19 in 10.0 mi West 6.9 mph - N/A   Clear
10:15 AM 55.0 °F - 26.4 °F 33% 30.19 in 10.0 mi WNW 4.6 mph - N/A   Clear
10:35 AM 55.4 °F - 26.8 °F 33% 30.19 in 10.0 mi NNW 6.9 mph - N/A   Clear
10:55 AM 56.1 °F - 24.8 °F 30% 30.19 in 10.0 mi WNW 6.9 mph - N/A   Clear
11:15 AM 56.3 °F - 24.8 °F 30% 30.18 in 10.0 mi NW 5.8 mph - N/A   Clear
11:35 AM 57.2 °F - 24.8 °F 29% 30.17 in 10.0 mi North 4.6 mph - N/A   Clear
11:55 AM 58.3 °F - 26.1 °F 29% 30.17 in 10.0 mi WNW 4.6 mph 16.1 mph N/A   Clear
12:15 PM 59.4 °F - 26.2 °F 28% 30.17 in 10.0 mi West 8.1 mph 19.6 mph N/A   Clear
12:35 PM 59.2 °F - 25.7 °F 28% 30.16 in 10.0 mi WSW 13.8 mph - N/A   Clear
12:55 PM 59.9 °F - 26.8 °F 28% 30.15 in 10.0 mi West 12.7 mph 18.4 mph N/A   Clear
1:15 PM 59.0 °F - 22.5 °F 24% 30.15 in 10.0 mi Calm Calm - N/A   Clear
1:35 PM 60.1 °F - 24.6 °F 26% 30.14 in 10.0 mi Calm Calm - N/A   Clear
1:55 PM 61.2 °F - 26.1 °F 26% 30.14 in 10.0 mi WNW 8.1 mph 21.9 mph N/A   Clear
2:15 PM 61.7 °F - 24.6 °F 24% 30.13 in 10.0 mi WNW 5.8 mph - N/A   Clear
2:35 PM 62.2 °F - 26.1 °F 25% 30.12 in 10.0 mi West 4.6 mph 16.1 mph N/A   Clear
3:35 PM 61.0 °F - 30.0 °F 31% 30.11 in 10.0 mi North 5.8 mph - N/A   Clear
3:55 PM 61.3 °F - 31.5 °F 32% 30.10 in 10.0 mi ENE 6.9 mph - N/A   Clear
4:15 PM 61.5 °F - 30.2 °F 31% 30.09 in 10.0 mi ENE 4.6 mph - N/A   Clear
4:35 PM 61.7 °F - 31.3 °F 32% 30.09 in 10.0 mi NE 6.9 mph - N/A   Clear
4:55 PM 61.9 °F - 29.1 °F 29% 30.08 in 10.0 mi NNE 5.8 mph - N/A   Clear
5:15 PM 61.0 °F - 29.8 °F 31% 30.08 in 10.0 mi NE 5.8 mph - N/A   Clear
5:35 PM 61.0 °F - 31.3 °F 33% 30.08 in 10.0 mi ENE 5.8 mph - N/A   Clear
5:55 PM 60.8 °F - 32.5 °F 35% 30.07 in 10.0 mi ENE 8.1 mph - N/A   Clear
6:35 PM 59.9 °F - 32.4 °F 35% 30.07 in 10.0 mi ENE 6.9 mph - N/A   Clear
6:55 PM 59.0 °F - 33.8 °F 39% 30.06 in 10.0 mi NE 5.8 mph - N/A   Clear
7:15 PM 57.7 °F - 34.9 °F 42% 30.06 in 10.0 mi NE 5.8 mph - N/A   Clear
7:35 PM 57.4 °F - 34.9 °F 43% 30.06 in 10.0 mi ENE 4.6 mph - N/A   Scattered Clouds
7:55 PM 57.2 °F - 34.3 °F 42% 30.06 in 10.0 mi East 4.6 mph - N/A   Mostly Cloudy
8:15 PM 56.5 °F - 36.1 °F 47% 30.05 in 10.0 mi East 4.6 mph - N/A   Overcast
8:35 PM 57.0 °F - 35.8 °F 45% 30.04 in 10.0 mi ESE 6.9 mph - N/A   Overcast
8:55 PM 57.4 °F - 34.0 °F 41% 30.05 in 10.0 mi ESE 5.8 mph - N/A   Overcast
9:15 PM 56.7 °F - 33.8 °F 42% 30.04 in 10.0 mi ESE 5.8 mph - N/A   Overcast
9:35 PM 56.5 °F - 34.2 °F 43% 30.05 in 10.0 mi ESE 4.6 mph - N/A   Overcast
9:55 PM 56.5 °F - 34.3 °F 43% 30.07 in 10.0 mi East 3.5 mph - N/A   Mostly Cloudy
10:15 PM 55.6 °F - 35.8 °F 47% 30.06 in 10.0 mi ESE 4.6 mph - N/A   Overcast
10:35 PM 55.4 °F - 33.6 °F 44% 30.06 in 10.0 mi SSE 4.6 mph - N/A   Mostly Cloudy
10:55 PM 55.4 °F - 34.5 °F 45% 30.05 in 10.0 mi SE 3.5 mph - N/A   Mostly Cloudy
11:15 PM 54.7 °F - 35.8 °F 49% 30.04 in 10.0 mi SE 4.6 mph - N/A   Mostly Cloudy
11:35 PM 55.4 °F - 33.8 °F 44% 30.04 in 10.0 mi South 4.6 mph - N/A   Overcast
11:55 PM 55.6 °F - 32.7 °F 42% 30.03 in 10.0 mi South 6.9 mph - N/A   Overcast